Stündliche Wetter Cecina

Heute, 24 Januar, Sonntag

Zeit Temperatur Niederschläge Wind Luftdruck Luftfeuchtigkeit
00:00 +6°C° 0 mm 11 m/S 745 mmHg 77%
01:00 +6°C° 0 mm 11 m/S 746 mmHg 77%
02:00 +6°C° 0 mm 10 m/S 746 mmHg 73%
03:00 +6°C° 0 mm 10 m/S 746 mmHg 69%
04:00 +6°C° 0 mm 10 m/S 746 mmHg 65%
05:00 +6°C° 0 mm 9 m/S 746 mmHg 65%
06:00 +6°C° 0 mm 8 m/S 746 mmHg 65%
07:00 +6°C° 0 mm 8 m/S 746 mmHg 64%
08:00 +8°C° 0 mm 7 m/S 746 mmHg 65%
09:00 +8°C° 0 mm 5 m/S 746 mmHg 67%
10:00 +10°C° 0 mm 4 m/S 746 mmHg 68%
11:00 +10°C° 0 mm 4 m/S 746 mmHg 66%
12:00 +11°C° 0 mm 4 m/S 746 mmHg 65%
13:00 +11°C° 0 mm 4 m/S 745 mmHg 64%
14:00 +11°C° 0.1 mm 4 m/S 746 mmHg 66%
15:00 +10°C° 0.1 mm 3 m/S 746 mmHg 68%
16:00 +10°C° 0.1 mm 3 m/S 747 mmHg 70%
17:00 +9°C° 0 mm 3 m/S 747 mmHg 74%
18:00 +7°C° 0 mm 3 m/S 748 mmHg 78%
19:00 +5°C° 0 mm 3 m/S 748 mmHg 82%
20:00 +5°C° 0 mm 3 m/S 748 mmHg 80%
21:00 +5°C° 0 mm 3 m/S 749 mmHg 79%
22:00 +5°C° 0 mm 4 m/S 749 mmHg 77%
23:00 +5°C° 0.2 mm 5 m/S 749 mmHg 77%

Morgen, 25 Januar, Montag

Zeit Temperatur Niederschläge Wind Luftdruck Luftfeuchtigkeit
00:00 +4°C° 0.2 mm 7 m/S 748 mmHg 78%
01:00 +5°C° 0.2 mm 9 m/S 748 mmHg 78%
02:00 +5°C° 0.3 mm 9 m/S 748 mmHg 77%
03:00 +5°C° 0.3 mm 9 m/S 748 mmHg 77%
04:00 +5°C° 0.3 mm 9 m/S 747 mmHg 76%
05:00 +4°C° 0.3 mm 8 m/S 748 mmHg 80%
06:00 +3°C° 0.3 mm 7 m/S 748 mmHg 84%
07:00 +2°C° 0.3 mm 6 m/S 749 mmHg 88%
08:00 +3°C° 0.1 mm 5 m/S 750 mmHg 83%
09:00 +5°C° 0.1 mm 5 m/S 751 mmHg 79%
10:00 +6°C° 0.1 mm 4 m/S 752 mmHg 75%
11:00 +6°C° 0 mm 4 m/S 753 mmHg 70%
12:00 +7°C° 0 mm 4 m/S 754 mmHg 65%
13:00 +8°C° 0 mm 4 m/S 754 mmHg 60%
14:00 +8°C° 0 mm 5 m/S 755 mmHg 61%
15:00 +8°C° 0 mm 5 m/S 755 mmHg 62%
16:00 +8°C° 0 mm 5 m/S 756 mmHg 63%
17:00 +6°C° 0 mm 4 m/S 756 mmHg 64%
18:00 +5°C° 0 mm 4 m/S 757 mmHg 64%
19:00 +4°C° 0 mm 3 m/S 757 mmHg 65%
20:00 +3°C° 0 mm 3 m/S 758 mmHg 64%
21:00 +3°C° 0 mm 3 m/S 758 mmHg 63%
22:00 +3°C° 0 mm 3 m/S 759 mmHg 62%
23:00 +2°C° 0 mm 3 m/S 759 mmHg 62%

übermorgen, 26 Januar, Dienstag

Zeit Temperatur Niederschläge Wind Luftdruck Luftfeuchtigkeit
00:00 +2°C° 0 mm 3 m/S 759 mmHg 62%
01:00 +2°C° 0 mm 3 m/S 759 mmHg 62%
02:00 +2°C° 0 mm 3 m/S 759 mmHg 65%
03:00 +3°C° 0 mm 2 m/S 759 mmHg 68%
04:00 +3°C° 0 mm 2 m/S 759 mmHg 70%
05:00 +2°C° 0 mm 2 m/S 760 mmHg 71%
06:00 +2°C° 0 mm 2 m/S 760 mmHg 72%
07:00 +2°C° 0 mm 2 m/S 760 mmHg 74%
08:00 +5°C° 0 mm 1 m/S 760 mmHg 70%
09:00 +6°C° 0 mm 1 m/S 761 mmHg 66%
10:00 +8°C° 0 mm 1 m/S 761 mmHg 62%
11:00 +9°C° 0 mm 1 m/S 762 mmHg 61%
12:00 +9°C° 0 mm 2 m/S 762 mmHg 59%
13:00 +10°C° 0 mm 2 m/S 762 mmHg 57%
14:00 +10°C° 0 mm 2 m/S 762 mmHg 60%
15:00 +9°C° 0 mm 2 m/S 762 mmHg 63%
16:00 +9°C° 0 mm 2 m/S 762 mmHg 65%
17:00 +8°C° 0 mm 2 m/S 762 mmHg 70%
18:00 +6°C° 0 mm 2 m/S 762 mmHg 75%
19:00 +5°C° 0 mm 2 m/S 762 mmHg 80%
20:00 +5°C° 0 mm 2 m/S 762 mmHg 79%
21:00 +5°C° 0 mm 2 m/S 762 mmHg 79%
22:00 +5°C° 0 mm 2 m/S 763 mmHg 78%
23:00 +5°C° 0 mm 2 m/S 763 mmHg 78%

27 Januar, Mittwoch

Zeit Temperatur Niederschläge Wind Luftdruck Luftfeuchtigkeit
00:00 +5°C° 0 mm 2 m/S 762 mmHg 77%
01:00 +5°C° 0 mm 2 m/S 762 mmHg 77%
02:00 +5°C° 0 mm 2 m/S 762 mmHg 76%
03:00 +5°C° 0 mm 2 m/S 762 mmHg 76%
04:00 +4°C° 0 mm 2 m/S 761 mmHg 76%
05:00 +5°C° 0 mm 2 m/S 761 mmHg 75%
06:00 +5°C° 0 mm 2 m/S 761 mmHg 73%
07:00 +5°C° 0 mm 2 m/S 761 mmHg 72%
08:00 +6°C° 0 mm 2 m/S 761 mmHg 70%
09:00 +7°C° 0 mm 2 m/S 761 mmHg 68%
10:00 +7°C° 0 mm 2 m/S 761 mmHg 66%
11:00 +8°C° 0 mm 2 m/S 761 mmHg 65%
12:00 +9°C° 0 mm 2 m/S 761 mmHg 65%
13:00 +10°C° 0 mm 1 m/S 761 mmHg 64%
14:00 +9°C° 0 mm 2 m/S 761 mmHg 65%
15:00 +9°C° 0 mm 2 m/S 761 mmHg 67%
16:00 +9°C° 0 mm 2 m/S 761 mmHg 68%
17:00 +8°C° 0 mm 2 m/S 761 mmHg 72%
18:00 +7°C° 0 mm 2 m/S 761 mmHg 76%
19:00 +6°C° 0 mm 2 m/S 761 mmHg 79%
20:00 +6°C° 0 mm 2 m/S 762 mmHg 81%
21:00 +5°C° 0 mm 2 m/S 762 mmHg 82%
22:00 +5°C° 0 mm 2 m/S 763 mmHg 84%
23:00 +5°C° 0 mm 2 m/S 763 mmHg 85%

28 Januar, Donnerstag

Zeit Temperatur Niederschläge Wind Luftdruck Luftfeuchtigkeit
00:00 +5°C° 0 mm 2 m/S 763 mmHg 86%
01:00 +5°C° 0 mm 2 m/S 763 mmHg 87%
02:00 +5°C° 0 mm 2 m/S 763 mmHg 87%
03:00 +5°C° 0 mm 2 m/S 763 mmHg 87%
04:00 +5°C° 0 mm 2 m/S 763 mmHg 87%
05:00 +5°C° 0 mm 2 m/S 763 mmHg 87%
06:00 +5°C° 0 mm 2 m/S 763 mmHg 88%
07:00 +4°C° 0 mm 3 m/S 763 mmHg 88%
08:00 +5°C° 0 mm 3 m/S 763 mmHg 85%
09:00 +7°C° 0 mm 3 m/S 763 mmHg 81%
10:00 +7°C° 0 mm 4 m/S 763 mmHg 78%
11:00 +9°C° 0 mm 3 m/S 763 mmHg 77%
12:00 +9°C° 0 mm 3 m/S 763 mmHg 76%
13:00 +10°C° 0 mm 3 m/S 762 mmHg 75%
14:00 +10°C° 0 mm 3 m/S 762 mmHg 77%
15:00 +10°C° 0 mm 3 m/S 762 mmHg 79%
16:00 +10°C° 0 mm 2 m/S 761 mmHg 81%
17:00 +9°C° 0 mm 2 m/S 761 mmHg 83%
18:00 +8°C° 0 mm 2 m/S 760 mmHg 86%
19:00 +8°C° 0 mm 2 m/S 760 mmHg 88%

29 Januar, Freitag

Zeit Temperatur Niederschläge Wind Luftdruck Luftfeuchtigkeit
Mehr zeigen

Wir brauchen deine Erlaubnis

Meteoprog und unser Service Anbieter werden persönliche Daten aufbewahren, so wie Cookies, Geräte Bezeichnung oder ähnliche Technologien von deinem Gerät und Prozess, so wie Persönliche Daten Inhalte und Werbungen, genauso wie social Media und den Verkehr zu analysieren.

  • Aufbewahrung und/oder Zugang zu deiner Geräte Informationen.

    Cookies, Geräte Bezeichnung oder andere Informationen, können aufbewahrt oder Zugang zu deinem Gerät erhalten, für den Grund, der oben angegeben wird.

  • Personalisierte Werbung und Inhalte, Messungen, Einblick in das Publikum und Produkt Entwicklung.

    Werbungen und Inhalte können personalisiert werden, basierend auf ein Profil. Mehr Daten können besser personalisierte Werbungen und Inhalte hinzufügen. Werbung und Inhalte können gezeigt und gemessen werden. Einblicke über das Publikum, welche die Werbung gesehen haben und den Inhalt, können abgeleitet werden. So wie Daten können genutzt werden, um es zu verbessern oder die Benutzer Erfahrung zu verbessern das System und die Software.

Wenn du “Ich stimme zu” klickst, erlaubst du uns, die Cookies zu benutzen die Geräte Bezeichnung, den Web oder ähnliche Technologien zu benutzen. Deine Settings, können in deinem Gerät bei deinem Browser geändert werden.

Für den bestimmten Zweck, berechtigten Interessen beruhen darauf, mehr als auf den Inhalt. Du kannst mehr darüber in unseren Privaten und Cookie Politik lesen.